KC5MUJ-1 Weather Reports


Display with metric or nautical units.
time (UTC)temp
F
wind
direction
speed
MPH
gust
MPH
rain 1hr
in
rain 24hr
in
rain mn
in
humidity
%
barometer
mb
20220518220500 96 201 0.0 0.0 0.00 0.00 0.00 1010.5
20220518215959 96 213 0.0 0.0 0.00 0.00 0.00 1010.6
20220518215500 95 182 0.0 0.0 0.00 0.00 0.00 1010.6
20220518215001 95 190 0.0 0.0 0.00 0.00 0.00 1010.7
20220518214459 95 155 0.0 0.0 0.00 0.00 0.00 1010.9
20220518214000 95 202 0.0 0.0 0.00 0.00 0.00 1011.0
20220518213500 95 233 0.0 0.0 0.00 0.00 0.00 1011.0
20220518213000 94 185 0.0 0.0 0.00 0.00 0.00 1011.0
20220518212501 93 188 0.0 0.0 0.00 0.00 0.00 1011.1
20220518212001 93 169 0.0 0.0 0.00 0.00 0.00 1011.3
20220518211500 93 175 0.0 0.0 0.00 0.00 0.00 1011.2
20220518211000 94 164 0.0 0.0 0.00 0.00 0.00 1011.2
20220518210500 93 188 0.0 0.0 0.00 0.00 0.00 1011.3
20220518210000 94 150 0.0 0.0 0.00 0.00 0.00 1011.4
20220518205459 94 160 0.0 0.0 0.00 0.00 0.00 1011.5
20220518204959 94 157 0.0 0.0 0.00 0.00 0.00 1011.7
20220518204500 94 167 0.0 0.0 0.00 0.00 0.00 1011.9
20220518204000 93 182 0.0 0.0 0.00 0.00 0.00 1012.0
20220518203500 94 196 0.0 0.0 0.00 0.00 0.00 1012.1
20220518203000 94 207 0.0 0.0 0.00 0.00 0.00 1012.2
20220518202502 94 209 0.0 0.0 0.00 0.00 0.00 1012.2
20220518202001 95 174 0.0 0.0 0.00 0.00 0.00 1012.2
20220518201500 96 107 0.0 0.0 0.00 0.00 0.00 1012.2
20220518200959 96 157 0.0 0.0 0.00 0.00 0.00 1012.2
20220518200500 95 208 0.0 0.0 0.00 0.00 0.00 1012.3
20220518200000 95 105 0.0 0.0 0.00 0.00 0.00 1012.4
20220518195501 95 136 0.0 0.0 0.00 0.00 0.00 1012.5
20220518194959 95 113 0.0 0.0 0.00 0.00 0.00 1012.5
20220518194500 94 209 0.0 0.0 0.00 0.00 0.00 1012.6
20220518193959 94 205 0.0 0.0 0.00 0.00 0.00 1012.7
20220518193500 93 202 0.0 0.0 0.00 0.00 0.00 1012.6
20220518192959 92 123 0.0 0.0 0.00 0.00 0.00 1012.7
20220518192459 92 211 0.0 0.0 0.00 0.00 0.00 1012.7
20220518192000 91 177 0.0 0.0 0.00 0.00 0.00 1012.8
20220518191500 91 185 0.0 0.0 0.00 0.00 0.00 1012.8
20220518191001 91 196 0.0 0.0 0.00 0.00 0.00 1012.9
20220518190459 91 183 0.0 0.0 0.00 0.00 0.00 1013.1
20220518185959 91 209 0.0 0.0 0.00 0.00 0.00 1013.1
20220518185500 91 191 0.0 0.0 0.00 0.00 0.00 1013.2
20220518185001 91 198 0.0 0.0 0.00 0.00 0.00 1013.4
20220518184500 90 207 0.0 0.0 0.00 0.00 0.00 1013.5
20220518184000 90 202 0.0 0.0 0.00 0.00 0.00 1013.5
20220518183459 89 200 0.0 0.0 0.00 0.00 0.00 1013.5
20220518183000 89 194 0.0 0.0 0.00 0.00 0.00 1013.5
20220518182500 89 88 0.0 0.0 0.00 0.00 0.00 1013.7
20220518182000 90 178 0.0 0.0 0.00 0.00 0.00 1013.7
20220518181458 90 166 0.0 0.0 0.00 0.00 0.00 1013.7
20220518180958 90 193 0.0 0.0 0.00 0.00 0.00 1013.8
20220518180459 90 155 0.0 0.0 0.00 0.00 0.00 1013.8
20220518175958 90 198 0.0 0.0 0.00 0.00 0.00 1013.7
20220518175500 91 130 0.0 0.0 0.00 0.00 0.00 1013.8
20220518174959 91 207 0.0 0.0 0.00 0.00 0.00 1013.8
20220518174459 91 186 0.0 0.0 0.00 0.00 0.00 1013.8
20220518173959 92 186 0.0 0.0 0.00 0.00 0.00 1013.9
20220518173459 92 198 0.0 0.0 0.00 0.00 0.00 1014.0
20220518172959 92 157 0.0 0.0 0.00 0.00 0.00 1014.0
20220518172459 92 185 0.0 0.0 0.00 0.00 0.00 1014.1
20220518171958 91 157 0.0 0.0 0.00 0.00 0.00 1014.0
20220518171458 91 102 0.0 0.0 0.00 0.00 0.00 1014.1
20220518170958 91 139 0.0 0.0 0.00 0.00 0.00 1014.2
20220518170458 91 147 0.0 0.0 0.00 0.00 0.00 1014.2
20220518165959 91 223 0.0 0.0 0.00 0.00 0.00 1014.2
20220518165459 90 200 0.0 0.0 0.00 0.00 0.00 1014.2
20220518164959 90 143 0.0 0.0 0.00 0.00 0.00 1014.1
20220518164500 89 192 0.0 0.0 0.00 0.00 0.00 1014.1
20220518163959 89 179 0.0 0.0 0.00 0.00 0.00 1014.2
20220518163459 89 209 0.0 0.0 0.00 0.00 0.00 1014.2
20220518162958 88 197 0.0 0.0 0.00 0.00 0.00 1014.1
20220518162458 88 103 0.0 0.0 0.00 0.00 0.00 1014.3
20220518161959 87 238 0.0 0.0 0.00 0.00 0.00 1014.2
20220518161500 87 190 0.0 0.0 0.00 0.00 0.00 1014.3
20220518160959 86 206 0.0 0.0 0.00 0.00 0.00 1014.3
20220518160459 86 167 0.0 0.0 0.00 0.00 0.00 1014.3
20220518155958 86 182 0.0 0.0 0.00 0.00 0.00 1014.5
20220518155459 85 202 0.0 0.0 0.00 0.00 0.00 1014.4
20220518154959 85 207 0.0 0.0 0.00 0.00 0.00 1014.4
20220518154459 85 189 0.0 0.0 0.00 0.00 0.00 1014.4
20220518154000 84 208 0.0 0.0 0.00 0.00 0.00 1014.3
20220518153500 84 186 0.0 0.0 0.00 0.00 0.00 1014.6
20220518152959 83 188 0.0 0.0 0.00 0.00 0.00 1014.6
20220518152458 83 202 0.0 0.0 0.00 0.00 0.00 1014.7
20220518151959 82 167 0.0 0.0 0.00 0.00 0.00 1014.7
20220518151459 82 193 0.0 0.0 0.00 0.00 0.00 1014.6
20220518150959 81 182 0.0 0.0 0.00 0.00 0.00 1014.6
20220518150501 81 178 0.0 0.0 0.00 0.00 0.00 1014.5
20220518145958 80 211 0.0 0.0 0.00 0.00 0.00 1014.5
20220518145502 80 175 0.0 0.0 0.00 0.00 0.00 1014.4
20220518145001 79 178 0.0 0.0 0.00 0.00 0.00 1014.5
20220518144459 79 198 0.0 0.0 0.00 0.00 0.00 1014.4
20220518143958 78 140 0.0 0.0 0.00 0.00 0.00 1014.3
20220518143458 77 210 0.0 0.0 0.00 0.00 0.00 1014.3
20220518143000 77 186 0.0 0.0 0.00 0.00 0.00 1014.3
20220518142458 76 175 0.0 0.0 0.00 0.00 0.00 1014.4
20220518142000 76 164 0.0 0.0 0.00 0.00 0.00 1014.3
20220518141500 75 215 0.0 0.0 0.00 0.00 0.00 1014.3
20220518140959 75 165 0.0 0.0 0.00 0.00 0.00 1014.3
20220518140459 74 199 0.0 0.0 0.00 0.00 0.00 1014.4
20220518135959 74 184 0.0 0.0 0.00 0.00 0.00 1014.4
20220518135459 74 206 0.0 0.0 0.00 0.00 0.00 1014.2
20220518134959 73 162 0.0 0.0 0.00 0.00 0.00 1014.2
20220518134458 73 142 0.0 0.0 0.00 0.00 0.00 1013.9
20220518133959 73 181 0.0 0.0 0.00 0.00 0.00 1014.0
20220518133458 73 198 0.0 0.0 0.00 0.00 0.00 1013.8
20220518132959 73 184 0.0 0.0 0.00 0.00 0.00 1013.8
20220518132459 73 220 0.0 0.0 0.00 0.00 0.00 1013.9
20220518131959 72 173 0.0 0.0 0.00 0.00 0.00 1013.8
20220518131459 72 166 0.0 0.0 0.00 0.00 0.00 1013.8
20220518130959 72 165 0.0 0.0 0.00 0.00 0.00 1013.9
20220518130459 72 211 0.0 0.0 0.00 0.00 0.00 1014.0
20220518125959 72 88 0.0 0.0 0.00 0.00 0.00 1013.9
20220518125459 72 186 0.0 0.0 0.00 0.00 0.00 1013.8
20220518124958 71 178 0.0 0.0 0.00 0.00 0.00 1013.9
20220518124459 71 113 0.0 0.0 0.00 0.00 0.00 1013.6
20220518123959 71 167 0.0 0.0 0.00 0.00 0.00 1013.8
20220518123459 71 101 0.0 0.0 0.00 0.00 0.00 1013.7
20220518122959 71 104 0.0 0.0 0.00 0.00 0.00 1013.8
20220518122500 71 148 0.0 0.0 0.00 0.00 0.00 1013.7
20220518121959 71 107 0.0 0.0 0.00 0.00 0.00 1013.7
20220518121500 71 113 0.0 0.0 0.00 0.00 0.00 1013.5
20220518120959 71 104 0.0 0.0 0.00 0.00 0.00 1013.6
20220518120459 71 179 0.0 0.0 0.00 0.00 0.00 1013.3
20220518120000 71 183 0.0 0.0 0.00 0.00 0.00 1013.4
20220518115459 71 142 0.0 0.0 0.00 0.00 0.00 1013.2
20220518114959 71 111 0.0 0.0 0.00 0.00 0.00 1013.3
20220518114500 71 117 0.0 0.0 0.00 0.00 0.00 1013.5
20220518113958 71 117 0.0 0.0 0.00 0.00 0.00 1013.8
20220518113500 71 200 0.0 0.0 0.00 0.00 0.00 1013.7
20220518112958 72 115 0.0 0.0 0.00 0.00 0.00 1013.7
20220518112459 72 110 0.0 0.0 0.00 0.00 0.00 1013.5
20220518111959 72 124 0.0 0.0 0.00 0.00 0.00 1013.3
20220518111459 72 208 0.0 0.0 0.00 0.00 0.00 1013.4
20220518110959 72 127 0.0 0.0 0.00 0.00 0.00 1013.4
20220518110459 72 154 0.0 0.0 0.00 0.00 0.00 1013.4
20220518105959 72 184 0.0 0.0 0.00 0.00 0.00 1013.5
20220518105458 73 187 0.0 0.0 0.00 0.00 0.00 1013.6
20220518104959 73 150 0.0 0.0 0.00 0.00 0.00 1013.8
20220518104459 73 168 0.0 0.0 0.00 0.00 0.00 1014.1
20220518103959 73 197 0.0 0.0 0.00 0.00 0.00 1014.0
20220518103458 73 211 0.0 0.0 0.00 0.00 0.00 1013.9
20220518102959 73 200 0.0 0.0 0.00 0.00 0.00 1013.9
20220518102500 73 200 0.0 0.0 0.00 0.00 0.00 1014.1
20220518102000 73 190 0.0 0.0 0.00 0.00 0.00 1014.1
20220518101458 73 142 0.0 0.0 0.00 0.00 0.00 1014.0
20220518101000 73 192 0.0 0.0 0.00 0.00 0.00 1014.1
20220518100458 73 232 0.0 0.0 0.00 0.00 0.00 1014.2
20220518100000 73 198 0.0 0.0 0.00 0.00 0.00 1013.9
20220518095459 73 201 0.0 0.0 0.00 0.00 0.00 1013.8
20220518094959 73 198 0.0 0.0 0.00 0.00 0.00 1013.8
20220518094500 73 188 0.0 0.0 0.00 0.00 0.00 1013.8
20220518094001 73 188 0.0 0.0 0.00 0.00 0.00 1013.8
20220518093459 73 118 0.0 0.0 0.00 0.00 0.00 1013.7
20220518092959 73 164 0.0 0.0 0.00 0.00 0.00 1013.5
20220518092458 73 199 0.0 0.0 0.00 0.00 0.00 1013.7
20220518091958 73 204 0.0 0.0 0.00 0.00 0.00 1013.8
20220518091458 73 192 0.0 0.0 0.00 0.00 0.00 1013.8
20220518090959 73 168 0.0 0.0 0.00 0.00 0.00 1013.8
20220518090501 73 188 0.0 0.0 0.00 0.00 0.00 1013.7
20220518085958 73 166 0.0 0.0 0.00 0.00 0.00 1013.6
20220518085500 73 151 0.0 0.0 0.00 0.00 0.00 1013.7
20220518084959 73 177 0.0 0.0 0.00 0.00 0.00 1013.6
20220518084459 73 248 0.0 0.0 0.00 0.00 0.00 1013.7
20220518083959 73 189 0.0 0.0 0.00 0.00 0.00 1013.7
20220518083459 73 208 0.0 0.0 0.00 0.00 0.00 1013.8
20220518082959 73 194 0.0 0.0 0.00 0.00 0.00 1013.9
20220518082459 73 186 0.0 0.0 0.00 0.00 0.00 1013.8
20220518081959 73 197 0.0 0.0 0.00 0.00 0.00 1013.8
20220518081459 73 160 0.0 0.0 0.00 0.00 0.00 1013.9
20220518081000 73 188 0.0 0.0 0.00 0.00 0.00 1014.0
20220518080459 73 175 0.0 0.0 0.00 0.00 0.00 1014.0
20220518075959 73 209 0.0 0.0 0.00 0.00 0.00 1014.1
20220518075459 73 196 0.0 0.0 0.00 0.00 0.00 1014.2
20220518074958 73 196 0.0 0.0 0.00 0.00 0.00 1014.3
20220518074459 73 180 0.0 0.0 0.00 0.00 0.00 1014.3
20220518073959 73 205 0.0 0.0 0.00 0.00 0.00 1014.2
20220518073459 73 160 0.0 0.0 0.00 0.00 0.00 1014.0
20220518072959 73 121 0.0 0.0 0.00 0.00 0.00 1014.0
20220518072459 73 173 0.0 0.0 0.00 0.00 0.00 1013.8
20220518071959 74 207 0.0 0.0 0.00 0.00 0.00 1013.8
20220518071459 74 176 0.0 0.0 0.00 0.00 0.00 1013.9
20220518070959 74 193 0.0 0.0 0.00 0.00 0.00 1013.9
20220518070459 74 162 0.0 0.0 0.00 0.00 0.00 1014.1
20220518065959 74 223 0.0 0.0 0.00 0.00 0.00 1014.3
20220518065459 74 184 0.0 0.0 0.00 0.00 0.00 1014.4
20220518064959 74 209 0.0 0.0 0.00 0.00 0.00 1014.4
20220518064500 74 82 0.0 0.0 0.00 0.00 0.00 1014.2
20220518063959 74 179 0.0 0.0 0.00 0.00 0.00 1014.3
20220518063459 74 161 0.0 0.0 0.00 0.00 0.00 1014.2
20220518062959 74 197 0.0 0.0 0.00 0.00 0.00 1014.1
20220518062459 74 166 0.0 0.0 0.00 0.00 0.00 1014.3
20220518062000 74 188 0.0 0.0 0.00 0.00 0.00 1014.1
20220518061500 74 194 0.0 0.0 0.00 0.00 0.00 1014.2
20220518061000 74 194 0.0 0.0 0.00 0.00 0.00 1014.0
20220518060501 74 213 0.0 0.0 0.00 0.00 0.00 1014.0
20220518060002 74 105 0.0 0.0 0.00 0.00 0.00 1014.0
20220518055500 74 170 0.0 0.0 0.00 0.00 0.00 1014.0
20220518055000 75 106 0.0 0.0 0.00 0.00 0.00 1014.0
20220518054501 75 171 0.0 0.0 0.00 0.00 0.00 1014.2
20220518054001 75 193 0.0 0.0 0.00 0.00 0.00 1014.0
20220518053501 75 110 0.0 0.0 0.00 0.00 0.00 1014.1
20220518053000 75 194 0.0 0.0 0.00 0.00 0.00 1014.2
20220518052500 75 190 0.0 0.0 0.00 0.00 0.00 1014.2
20220518052000 75 119 0.0 0.0 0.00 0.00 0.00 1014.2
20220518051501 75 120 0.0 0.0 0.00 0.00 0.00 1014.4
20220518051001 75 109 0.0 0.0 0.00 0.00 0.00 1014.2
20220518050500 75 178 0.0 0.0 0.00 0.00 0.00 1014.2
20220518050000 76 168 0.0 0.0 0.00 0.00 0.00 1014.2
20220518045501 76 188 0.0 0.0 0.00 0.00 0.00 1014.4
20220518045000 76 194 0.0 0.0 0.00 0.00 0.00 1014.3
20220518044500 76 213 0.0 0.0 0.00 0.00 0.00 1014.3
20220518044000 76 114 0.0 0.0 0.00 0.00 0.00 1014.3
20220518043500 76 82 0.0 0.0 0.00 0.00 0.00 1014.4
20220518043000 76 209 0.0 0.0 0.00 0.00 0.00 1014.4
20220518042502 77 180 0.0 0.0 0.00 0.00 0.00 1014.4
20220518042000 77 111 0.0 0.0 0.00 0.00 0.00 1014.4
20220518041501 77 94 0.0 0.0 0.00 0.00 0.00 1014.4
20220518041000 77 110 0.0 0.0 0.00 0.00 0.00 1014.4
20220518040500 77 130 0.0 0.0 0.00 0.00 0.00 1014.3
20220518040000 77 111 0.0 0.0 0.00 0.00 0.00 1014.2
20220518035500 78 103 0.0 0.0 0.00 0.00 0.00 1014.1
20220518035000 78 80 0.0 0.0 0.00 0.00 0.00 1014.1
20220518034500 78 205 0.0 0.0 0.00 0.00 0.00 1014.1
20220518034000 78 110 0.0 0.0 0.00 0.00 0.00 1013.8
20220518033500 79 92 0.0 0.0 0.00 0.00 0.00 1013.8
20220518033001 79 94 0.0 0.0 0.00 0.00 0.00 1013.9
20220518032500 79 165 0.0 0.0 0.00 0.00 0.00 1013.8
20220518032000 80 110 0.0 0.0 0.00 0.00 0.00 1013.8
20220518031500 80 113 0.0 0.0 0.00 0.00 0.00 1013.8
20220518031001 80 139 0.0 0.0 0.00 0.00 0.00 1013.7
20220518030500 80 115 0.0 0.0 0.00 0.00 0.00 1013.7
20220518030000 81 103 0.0 0.0 0.00 0.00 0.00 1013.7
20220518025459 81 207 0.0 0.0 0.00 0.00 0.00 1013.7
20220518025000 81 110 0.0 0.0 0.00 0.00 0.00 1013.7
20220518024500 82 120 0.0 0.0 0.00 0.00 0.00 1013.5
20220518024000 82 103 0.0 0.0 0.00 0.00 0.00 1013.5
20220518023501 82 119 0.0 0.0 0.00 0.00 0.00 1013.5
20220518023000 83 107 0.0 0.0 0.00 0.00 0.00 1013.5
20220518022501 83 168 0.0 0.0 0.00 0.00 0.00 1013.3
20220518022000 83 155 0.0 0.0 0.00 0.00 0.00 1013.4
20220518021500 84 124 0.0 0.0 0.00 0.00 0.00 1013.3
20220518021000 84 113 0.0 0.0 0.00 0.00 0.00 1013.0
20220518020459 84 111 0.0 0.0 0.00 0.00 0.00 1012.8
20220518020000 84 130 0.0 0.0 0.00 0.00 0.00 1012.8
20220518015500 85 140 0.0 0.0 0.00 0.00 0.00 1012.8
20220518015000 85 113 0.0 0.0 0.00 0.00 0.00 1012.8
20220518014500 85 111 0.0 0.0 0.00 0.00 0.00 1012.7
20220518014000 86 116 0.0 0.0 0.00 0.00 0.00 1012.8
20220518013500 86 104 0.0 0.0 0.00 0.00 0.00 1012.7
20220518012959 86 96 0.0 0.0 0.00 0.00 0.00 1012.6
20220518012500 87 90 0.0 0.0 0.00 0.00 0.00 1012.7
20220518012000 87 62 0.0 0.0 0.00 0.00 0.00 1012.6
20220518011500 87 142 0.0 0.0 0.00 0.00 0.00 1012.5
20220518011000 87 118 0.0 0.0 0.00 0.00 0.00 1012.5
20220518010503 88 114 0.0 0.0 0.00 0.00 0.00 1012.4
20220518005959 88 132 0.0 0.0 0.00 0.00 0.00 1012.6
20220518005500 88 128 0.0 0.0 0.00 0.00 0.00 1012.6
20220518004959 89 123 0.0 0.0 0.00 0.00 0.00 1012.6
20220518004500 89 204 0.0 0.0 0.00 0.00 0.00 1012.6
20220518004001 89 107 0.0 0.0 0.00 0.00 0.00 1012.6
20220518003500 89 182 0.0 0.0 0.00 0.00 0.00 1012.5
20220518003000 89 103 0.0 0.0 0.00 0.00 0.00 1012.5
20220518002459 90 96 0.0 0.0 0.00 0.00 0.00 1012.3
20220518002000 90 83 0.0 0.0 0.00 0.00 0.00 1012.1
20220518001500 90 143 0.0 0.0 0.00 0.00 0.00 1011.8
20220518001000 90 124 0.0 0.0 0.00 0.00 0.00 1011.7
20220518000459 90 166 0.0 0.0 0.00 0.00 0.00 1011.9
20220518000000 91 101 0.0 0.0 0.00 0.00 0.00 1012.0
20220517235500 91 191 0.0 0.0 0.00 0.00 0.00 1012.1
20220517235000 91 98 0.0 0.0 0.00 0.00 0.00 1012.1
20220517234500 91 97 0.0 0.0 0.00 0.00 0.00 1012.3
20220517234000 92 159 0.0 0.0 0.00 0.00 0.00 1012.3
20220517233501 92 123 0.0 0.0 0.00 0.00 0.00 1012.2
20220517233000 92 192 0.0 0.0 0.00 0.00 0.00 1012.4
20220517232501 92 171 0.0 0.0 0.00 0.00 0.00 1012.4
20220517232000 92 200 0.0 0.0 0.00 0.00 0.00 1012.4
20220517231500 92 180 0.0 0.0 0.00 0.00 0.00 1012.5
20220517231000 92 89 0.0 0.0 0.00 0.00 0.00 1012.4
20220517230500 92 96 0.0 0.0 0.00 0.00 0.00 1012.4
20220517230000 92 130 0.0 0.0 0.00 0.00 0.00 1012.4
20220517225501 93 209 0.0 0.0 0.00 0.00 0.00 1012.4
20220517225000 93 180 0.0 0.0 0.00 0.00 0.00 1012.5
20220517224500 93 152 0.0 0.0 0.00 0.00 0.00 1012.5
20220517224000 94 190 0.0 0.0 0.00 0.00 0.00 1012.7
20220517223502 95 109 0.0 0.0 0.00 0.00 0.00 1012.6
20220517223000 95 181 0.0 0.0 0.00 0.00 0.00 1012.6
20220517222501 95 223 0.0 0.0 0.00 0.00 0.00 1012.7
20220517222001 95 98 0.0 0.0 0.00 0.00 0.00 1012.6
20220517221503 96 98 0.0 0.0 0.00 0.00 0.00 1012.7
20220517221000 96 196 0.0 0.0 0.00 0.00 0.00 1012.8